[[{"header":{"parameterUnit":"m.s-1","parameterCategory":1,"la1":30.2991,"la2":30.254,"lo1":-89.0895,"lo2":-89.0444,"dy":0.0017,"dx":0.0017,"nx":28,"ny":28,"refTime":"2023-03-16T21:00:00:Z","depth":0,"parameterNumber":2,"parameterNumberName":"U-component_of_WINDS"},"data":[0,0,0,0,0,0,0,0,0,0,0,0,0,0,0,0,0,0,0,0,0,0,0,0,0,0,0,0,0,0,0,0,0,0,0,0,0,0,0,0,0,0,0,0,0,0,0,0,0,0,0,0,0,0,0,0,0,0,-1.9244,-1.9244,0,-1.9304,-1.9305,-1.9305,-1.9278,-1.9276,-1.9275,-1.9273,-1.9336,-1.9338,-1.9342,0,0,0,0,0,0,0,0,0,0,0,0,0,-1.9105,-1.9107,-1.9244,-1.9244,-1.9245,-1.9304,-1.9305,-1.9305,-1.9278,-1.9276,-1.9274,-1.9272,-1.9335,-1.9338,-1.9342,0,0,0,0,0,0,0,0,0,0,0,0,0,-1.9165,-1.9108,-1.9244,-1.9238,-1.9239,-1.9304,-1.9305,-1.9306,-1.9278,-1.9276,-1.9274,-1.9272,-1.9333,-1.9338,-1.9342,-1.9416,0,0,-1.9356,-1.9358,0,0,0,0,0,0,0,0,-1.9162,-1.917,-1.9238,-1.9239,-1.9239,-1.9281,-1.9278,-1.9343,-1.9279,-1.9263,-1.9273,-1.927,-1.9319,-1.9325,-1.9341,-1.9419,-1.9422,-1.9357,-1.936,-1.9362,-1.9363,0,0,0,0,0,0,0,-1.9158,-1.9167,-1.9267,-1.9239,-1.924,-1.9233,-1.9239,-1.9291,-1.9303,-1.9264,-1.9263,-1.927,-1.9319,-1.9337,-1.9342,-1.9423,-1.9357,-1.9361,-1.9364,-1.9365,-1.9564,-1.9566,0,0,0,0,0,0,-1.9153,-1.9164,-1.9266,-1.9269,-1.9194,-1.9237,-1.9244,-1.927,-1.9303,-1.9305,-1.9272,-1.9268,-1.933,-1.9337,-1.9344,-1.9433,-1.9362,-1.9366,-1.9368,-1.9561,-1.9564,-1.9567,0,0,0,0,0,0,-1.9151,-1.9163,-1.9263,-1.9216,-1.9229,-1.9242,-1.9271,-1.9272,-1.929,-1.9308,-1.931,-1.9288,-1.9329,-1.9338,-1.9398,-1.9435,-1.9368,-1.9372,-1.9558,-1.9562,-1.9566,-1.9611,0,0,0,0,0,0,-1.9147,-1.9162,-1.919,-1.9217,-1.9231,-1.9316,-1.9273,-1.9275,-1.9298,-1.9294,-1.9324,-1.9326,-1.9327,-1.9392,-1.9403,-1.944,-1.9376,-1.9555,-1.956,-1.9564,-1.9607,-1.9616,-1.9624,0,0,0,0,0,-1.9142,-1.9201,-1.9192,-1.9204,-1.9267,-1.9318,-1.9326,-1.9326,-1.9301,-1.933,-1.9341,-1.9325,-1.9429,-1.9398,-1.9411,-1.945,-1.9553,-1.9559,-1.9564,-1.9603,-1.9614,-1.9624,0,0,0,0,0,0,-1.9178,-1.9204,-1.9195,-1.9264,-1.9289,-1.9314,-1.935,-1.9339,-1.9372,-1.9367,-1.9365,-1.9372,-1.9435,-1.9448,-1.9413,-1.9523,-1.9487,-1.9495,-1.9512,-1.9523,-1.9532,-1.9528,-1.938,0,0,0,0,0,-1.9194,-1.9234,-1.9255,-1.9314,-1.9327,-1.9336,-1.9359,-1.9356,-1.9382,-1.9393,-1.9409,-1.9435,-1.9473,-1.9499,-1.9535,-1.9608,-1.9614,-1.9641,-1.965,-1.9657,-1.9664,-1.9704,-1.9716,-1.9586,-1.9585,-1.9585,0,0,-1.9228,-1.9247,-1.9273,-1.9322,-1.9341,-1.9382,-1.9345,-1.9391,-1.9421,-1.94,-1.9458,-1.9471,-1.9499,-1.9566,-1.9597,-1.9579,-1.9702,-1.9664,-1.9669,-1.9673,-1.9711,-1.9723,-1.9734,-1.9589,-1.9589,-1.9588,0,0,-1.9311,-1.9329,-1.9381,-1.9401,-1.943,-1.9435,-1.9448,-1.9474,-1.9481,-1.9539,-1.9524,-1.956,-1.9626,-1.9648,-1.9667,-1.9757,-1.9744,-1.9768,-1.9815,-1.9854,-1.9864,-1.9873,-1.9906,-1.9917,-1.9776,-1.9776,-1.9776,0,-1.935,-1.9411,-1.9409,-1.9455,-1.9477,-1.9459,-1.9511,-1.953,-1.957,-1.9586,-1.9566,-1.9648,-1.9666,-1.9738,-1.9759,-1.9776,-1.979,-1.9766,-1.9863,-1.9872,-1.988,-1.9911,-1.9923,-1.9779,-1.9778,-1.9778,-1.9778,0,-1.9457,-1.95,-1.9538,-1.9577,-1.9603,-1.9652,-1.9657,-1.9684,-1.9678,-1.9686,-1.9745,-1.9766,-1.9806,-1.9823,-1.9818,-1.9894,-1.9882,-1.9862,-1.9827,-1.9896,-1.9925,-1.9937,-1.9783,-1.9782,-1.9781,-1.978,0,0,-1.9566,-1.9602,-1.9616,-1.9633,-1.9664,-1.9697,-1.9745,-1.9784,-1.9807,-1.9834,-1.9875,-1.9931,-1.9912,-1.9934,-1.9932,-1.9965,-2.0036,-1.9942,-1.9942,-1.9959,-2.012,-2.0136,-2.015,-2.0026,-2.0029,-2.003,-2.0118,0,-1.9652,-1.9736,-1.9735,-1.9813,-1.9853,-1.9835,-1.9877,-1.99,-1.9908,-1.9943,-1.9951,-1.9991,-1.9964,-1.9977,-2.0009,-2.002,-2.0068,-2.0014,-2.0065,-2.0066,-2.0059,-2.0165,-2.0182,-2.0263,-2.0129,-2.0131,-2.0133,0,-1.9764,-1.9795,-1.9877,-1.9901,-1.9918,-1.9955,-1.9991,-2.0024,-2.0049,-2.0053,-2.0077,-2.0069,-2.0118,-2.0079,-2.0146,-2.0109,-2.013,-2.0138,-2.0141,-2.0147,-2.0105,-2.0174,-2.0289,-2.0302,-2.0151,-2.0149,-2.0148,0,-1.9836,-1.9898,-1.9955,-1.997,-2.0,-2.0027,-2.004,-2.0064,-2.0087,-2.0118,-2.0133,-2.0169,-2.0189,-2.0216,-2.0218,-2.019,-2.0286,-2.0248,-2.0291,-2.0291,-2.0313,-2.0312,-2.0434,-2.0324,-2.0324,-2.0324,-2.0324,0,-1.9933,-1.9984,-1.9988,-2.0024,-2.008,-2.0077,-2.0133,-2.0144,-2.0165,-2.0202,-2.0189,-2.0224,-2.0223,-2.0259,-2.0261,-2.0316,-2.0325,-2.0329,-2.0329,-2.0331,-2.0331,-2.0346,-2.034,-2.0327,-2.0326,-2.0326,-2.0325,0,-2.0024,-2.0029,-2.009,-2.0112,-2.0119,-2.016,-2.0179,-2.0213,-2.0219,-2.0266,-2.0277,-2.0287,-2.0328,-2.0332,-2.038,-2.0381,-2.0448,-2.0441,-2.044,-2.0439,-2.0482,-2.0478,-2.0618,-2.0637,-2.0514,-2.0515,-2.0516,0,-2.0086,-2.0125,-2.0151,-2.0175,-2.019,-2.0228,-2.0252,-2.025,-2.0275,-2.0307,-2.0336,-2.0376,-2.0408,-2.0474,-2.0486,-2.0522,-2.0517,-2.0564,-2.0523,-2.0523,-2.0519,-2.0517,-2.0521,-2.0572,-2.0574,-2.0575,-2.0576,0,-2.0195,-2.0196,-2.023,-2.0265,-2.0294,-2.0321,-2.0347,-2.0367,-2.0369,-2.0398,-2.0439,-2.0464,-2.0512,-2.0552,-2.0588,-2.0601,-2.0589,-2.0588,-2.06,-2.0603,-2.0601,-2.0603,-2.0462,-2.0585,-2.0584,-2.0584,-2.0583,-2.0583,-2.0274,-2.0308,-2.0332,-2.037,-2.0389,-2.0414,-2.0446,-2.0456,-2.0491,-2.053,-2.0527,-2.0573,-2.0597,-2.0644,-2.066,-2.0696,-2.068,-2.0698,-2.0702,-2.0707,-2.0711,-2.0594,-2.0702,-2.0702,-2.0702,-2.0701,-2.0701,0,-2.0384,-2.0398,-2.0434,-2.047,-2.05,-2.0485,-2.0513,-2.0539,-2.058,-2.0603,-2.0634,-2.0682,-2.072,-2.0734,-2.0771,-2.0797,-2.0793,-2.0807,-2.0806,-2.081,-2.0723,-2.0709,-2.0811,-2.0811,-2.0811,-2.0811,-2.081,-2.081,-2.0445,-2.0501,-2.0504,-2.0569,-2.0583,-2.0628,-2.0645,-2.0667,-2.0686,-2.074,-2.0771,-2.078,-2.0799,-2.0837,-2.0872,-2.0875,-2.0889,-2.0907,-2.0907,-2.0827,-2.0816,-2.0805,-2.0792,-2.091,-2.091,-2.0991,-2.0992,-2.0993]},{"header":{"parameterUnit":"m.s-1","parameterCategory":1,"la1":30.2991,"la2":30.254,"lo1":-89.0895,"lo2":-89.0444,"dy":0.0017,"dx":0.0017,"nx":28,"ny":28,"refTime":"2023-03-16T21:00:00:Z","depth":0,"parameterNumber":3,"parameterNumberName":"V-component_of_WINDS"},"data":[0,0,0,0,0,0,0,0,0,0,0,0,0,0,0,0,0,0,0,0,0,0,0,0,0,0,0,0,0,0,0,0,0,0,0,0,0,0,0,0,0,0,0,0,0,0,0,0,0,0,0,0,0,0,0,0,0,0,-7.8602,-7.8603,0,-7.8667,-7.8668,-7.8668,-7.8592,-7.8589,-7.8586,-7.8583,-7.8645,-7.8649,-7.8653,0,0,0,0,0,0,0,0,0,0,0,0,0,-7.8408,-7.8412,-7.8602,-7.8603,-7.8604,-7.8667,-7.8668,-7.8669,-7.8592,-7.8589,-7.8585,-7.8582,-7.8643,-7.8648,-7.8654,0,0,0,0,0,0,0,0,0,0,0,0,0,-7.8484,-7.8413,-7.8602,-7.8573,-7.8571,-7.8667,-7.8668,-7.8669,-7.8593,-7.8589,-7.8584,-7.858,-7.8642,-7.8648,-7.8654,-7.8779,0,0,-7.8674,-7.8677,0,0,0,0,0,0,0,0,-7.848,-7.8491,-7.8577,-7.8575,-7.8573,-7.8617,-7.8622,-7.8706,-7.8594,-7.8585,-7.8583,-7.8578,-7.8639,-7.8645,-7.8666,-7.8782,-7.8785,-7.8674,-7.8678,-7.8681,-7.8683,0,0,0,0,0,0,0,-7.8475,-7.8488,-7.8627,-7.8578,-7.8576,-7.8556,-7.8562,-7.8637,-7.8635,-7.8585,-7.858,-7.8589,-7.8637,-7.866,-7.8667,-7.8786,-7.8674,-7.868,-7.8684,-7.8686,-7.9009,-7.9013,0,0,0,0,0,0,-7.8473,-7.8484,-7.8625,-7.8629,-7.8515,-7.8563,-7.857,-7.8607,-7.8634,-7.8634,-7.8592,-7.8585,-7.8652,-7.866,-7.8669,-7.8819,-7.8681,-7.8687,-7.8691,-7.9004,-7.901,-7.9015,0,0,0,0,0,0,-7.847,-7.8487,-7.8623,-7.8556,-7.8571,-7.8571,-7.8613,-7.8611,-7.8634,-7.8639,-7.8638,-7.8617,-7.8649,-7.866,-7.8753,-7.882,-7.869,-7.8696,-7.8999,-7.9006,-7.9012,-7.9118,0,0,0,0,0,0,-7.8464,-7.8486,-7.8534,-7.8557,-7.8575,-7.8707,-7.8618,-7.8615,-7.8646,-7.8637,-7.8662,-7.8662,-7.8646,-7.8744,-7.876,-7.8826,-7.8701,-7.8993,-7.9002,-7.901,-7.9108,-7.9128,-7.9144,0,0,0,0,0,-7.8458,-7.856,-7.8537,-7.8554,-7.8636,-7.8711,-7.8721,-7.8702,-7.8652,-7.87,-7.8703,-7.8661,-7.881,-7.8754,-7.8771,-7.8841,-7.8988,-7.8999,-7.9009,-7.91,-7.9124,-7.9144,0,0,0,0,0,0,-7.8542,-7.8562,-7.8537,-7.865,-7.868,-7.8698,-7.8758,-7.8727,-7.8771,-7.876,-7.8733,-7.874,-7.8839,-7.8849,-7.8786,-7.8964,-7.8891,-7.8905,-7.8954,-7.8976,-7.8994,-7.899,-7.8706,0,0,0,0,0,-7.8574,-7.8635,-7.8648,-7.8746,-7.8763,-7.8759,-7.879,-7.8774,-7.8803,-7.8814,-7.8824,-7.8853,-7.8906,-7.8941,-7.899,-7.9109,-7.9114,-7.9165,-7.9183,-7.9198,-7.9211,-7.9276,-7.9299,-7.905,-7.905,-7.9049,0,0,-7.864,-7.8658,-7.8698,-7.8764,-7.8785,-7.8848,-7.8769,-7.8839,-7.8885,-7.8824,-7.8914,-7.8922,-7.8952,-7.906,-7.9107,-7.9071,-7.9281,-7.9211,-7.9223,-7.9228,-7.9289,-7.9313,-7.9334,-7.9057,-7.9056,-7.9054,0,0,-7.8792,-7.8813,-7.8898,-7.8921,-7.8955,-7.8952,-7.8973,-7.8997,-7.9001,-7.9091,-7.9047,-7.9101,-7.9192,-7.9216,-7.9241,-7.9405,-7.9369,-7.9422,-7.9515,-7.9579,-7.9599,-7.9616,-7.9676,-7.9697,-7.9435,-7.9435,-7.9435,0,-7.887,-7.8965,-7.8944,-7.9019,-7.9049,-7.8999,-7.9085,-7.9108,-7.9156,-7.9178,-7.9136,-7.9253,-7.9269,-7.9382,-7.9423,-7.9443,-7.9466,-7.9419,-7.9598,-7.9615,-7.9631,-7.9687,-7.971,-7.9441,-7.944,-7.944,-7.9439,0,-7.9058,-7.9125,-7.9189,-7.924,-7.9277,-7.9357,-7.9348,-7.9388,-7.9369,-7.937,-7.9462,-7.9481,-7.9534,-7.9559,-7.9539,-7.967,-7.9646,-7.9602,-7.9528,-7.9661,-7.9714,-7.9736,-7.945,-7.9448,-7.9446,-7.9445,0,0,-7.9265,-7.9305,-7.9329,-7.9353,-7.9388,-7.9438,-7.9515,-7.9569,-7.9605,-7.9639,-7.9704,-7.9784,-7.9744,-7.9771,-7.9754,-7.981,-7.9941,-7.9759,-7.9759,-7.9793,-8.0088,-8.0122,-8.0147,-7.9917,-7.9921,-7.9924,-8.0085,0,-7.9419,-7.9555,-7.9541,-7.967,-7.9732,-7.9687,-7.9754,-7.9782,-7.9785,-7.9837,-7.9839,-7.9898,-7.984,-7.9856,-7.991,-7.9914,-8.0,-7.9902,-7.9976,-7.9979,-7.9971,-8.0175,-8.021,-8.0361,-8.0106,-8.0109,-8.0112,0,-7.9617,-7.9663,-7.9799,-7.9827,-7.9852,-7.9913,-7.9963,-8.0013,-8.0044,-8.0043,-8.0075,-8.0049,-8.0125,-8.005,-8.0156,-8.009,-8.0119,-8.0126,-8.0131,-8.0138,-8.0054,-8.0187,-8.0409,-8.0432,-8.0144,-8.0141,-8.0139,0,-7.9756,-7.9851,-7.9945,-7.9966,-8.0001,-8.0045,-8.0061,-8.0088,-8.0122,-8.0165,-8.0187,-8.0237,-8.0265,-8.0304,-8.0291,-8.0237,-8.04,-8.0323,-8.0401,-8.0401,-8.0437,-8.0435,-8.0668,-8.0455,-8.0455,-8.0454,-8.0454,0,-7.9931,-8.0016,-8.0009,-8.0067,-8.0161,-8.0143,-8.0237,-8.0247,-8.0272,-8.0331,-8.0293,-8.0349,-8.0329,-8.0383,-8.0373,-8.0463,-8.0475,-8.0476,-8.0472,-8.048,-8.048,-8.0499,-8.0489,-8.046,-8.0459,-8.0458,-8.0457,0,-8.0101,-8.01,-8.02,-8.0226,-8.0234,-8.0303,-8.0324,-8.0378,-8.0379,-8.0454,-8.0471,-8.0472,-8.0534,-8.0526,-8.0594,-8.0587,-8.07,-8.0683,-8.069,-8.0686,-8.0765,-8.0758,-8.1018,-8.1052,-8.0817,-8.0819,-8.0821,0,-8.0213,-8.0279,-8.0313,-8.0351,-8.0371,-8.0432,-8.0467,-8.0452,-8.049,-8.0533,-8.0582,-8.0641,-8.0688,-8.0789,-8.0795,-8.0847,-8.0832,-8.092,-8.084,-8.0846,-8.0835,-8.0832,-8.0839,-8.0936,-8.0938,-8.0941,-8.0942,0,-8.0413,-8.041,-8.0463,-8.0518,-8.0563,-8.0604,-8.0642,-8.0674,-8.0663,-8.0708,-8.0772,-8.0809,-8.088,-8.094,-8.099,-8.1004,-8.0972,-8.0968,-8.0989,-8.0997,-8.0999,-8.1001,-8.0734,-8.0962,-8.096,-8.0958,-8.0957,-8.0957,-8.0558,-8.0615,-8.0649,-8.0711,-8.0738,-8.0775,-8.0828,-8.0837,-8.0891,-8.095,-8.0937,-8.101,-8.1041,-8.1105,-8.1125,-8.1181,-8.1149,-8.1179,-8.1187,-8.1195,-8.1205,-8.099,-8.119,-8.1189,-8.1189,-8.1188,-8.1188,0,-8.0757,-8.0777,-8.0834,-8.089,-8.0939,-8.0906,-8.0947,-8.0989,-8.1055,-8.1087,-8.1135,-8.121,-8.1268,-8.128,-8.1335,-8.1378,-8.1364,-8.1393,-8.139,-8.1394,-8.123,-8.1207,-8.1403,-8.1403,-8.1403,-8.1403,-8.1402,-8.1402,-8.0866,-8.0961,-8.0963,-8.1071,-8.1089,-8.1163,-8.1189,-8.1223,-8.1249,-8.1335,-8.1384,-8.1392,-8.1416,-8.1473,-8.1525,-8.1527,-8.1549,-8.1584,-8.158,-8.1426,-8.1405,-8.1385,-8.1363,-8.1589,-8.1589,-8.1739,-8.1741,-8.1742]}]]